Location: Be Tobo
(6.6442°N, 10.6239°W)
Time: 16:13:37
(UTC+00:00)

NOSS 3-4 (C) - Pass Details

Date: 18 September 2020
Orbit: 886 x 1326 km, 63.4° (Epoch: 22 October)

Event Time Altitude Azimuth Distance (km) Brightness Sun altitude
Rises 20:28:22 0° 211° (SSW) 3,583 6.8 -27.6°
Reaches altitude 10° 20:30:59 10° 215° (SW) 2,600 6.1 -28.2°
Maximum altitude 20:36:50 59° 293° (WNW) 1,017 3.7 -29.7°
Enters shadow 20:39:16 34° 358° (N) 1,415 4.3 -30.3°
